Temp
26 28 28 28 28 27 26 26 26 27 28 28 26 23 23 24 22 20 21 22 21 21 22 22 22 22 21 22 22 22 21 21 21 21 21 21 21 21 20 20 20 20 20 20 20 20 20 20 20 20 20 20 20 20 20 20 20 21 21 21 21 21 21 21 22 22 23 23 23 23 24 24 25 24 24 25 26 26 26 27 27 27 27 27 27 27 27
25 27 28 28 28 26 26 26 26 27 27 26 25 24 24 24 22 22 22 22 22 22 23 22 22 22 22 22 22 22 22 21 21 21 21 21 21 20 20 20 20 20 20 20 20 20 20 20 20 20 19 19 20 20 20 20 20 20 20 21 21 21 21 21 21 21 22 22 23 23 24 24 25 25 25 24 25 26 26 26 27 27 27 27 27 27 27
24 26 27 27 27 26 25 25 26 26 25 25 24 24 23 23 22 22 22 21 21 23 23 22 22 22 22 22 22 22 22 21 21 21 20 20 20 20 20 20 20 20 20 21 20 19 19 20 20 20 19 19 20 20 20 20 19 19 19 20 20 20 21 21 21 21 21 21 22 23 24 24 25 25 25 24 25 26 26 26 26 26 27 27 27 27 27
22 24 25 26 27 26 24 24 25 25 24 24 24 24 24 23 22 22 21 21 21 22 22 22 22 22 22 21 21 21 21 21 21 20 20 20 20 20 20 20 20 20 20 20 20 20 20 20 20 20 20 20 20 19 19 19 19 19 19 19 19 20 20 21 21 21 21 21 21 22 22 23 23 24 24 24 24 25 26 26 26 26 26 27 27 27 27
21 23 24 25 25 24 22 23 24 25 25 25 24 24 25 24 23 22 21 21 21 22 22 21 21 21 21 21 21 21 21 20 20 20 19 19 19 20 20 20 20 20 19 20 20 20 20 20 20 20 20 20 20 20 20 19 19 19 19 19 19 19 20 20 20 21 21 21 21 21 22 22 22 23 24 24 24 25 25 25 25 26 26 26 27 27 27
21 22 24 25 23 21 22 24 25 25 25 25 24 24 24 24 24 23 22 22 22 22 22 21 21 21 21 21 21 20 20 20 20 19 19 19 19 20 20 20 19 19 19 20 20 20 20 20 20 20 20 20 20 20 20 20 20 19 19 19 19 19 19 20 20 20 21 21 21 21 21 21 22 22 23 23 24 24 24 24 24 25 25 26 26 26 27
21 22 23 22 20 21 24 26 25 25 26 25 25 24 24 23 23 23 22 22 21 21 21 21 21 21 21 21 21 20 20 20 20 19 19 19 19 20 20 19 19 19 20 20 19 20 20 20 20 20 20 20 20 20 20 20 20 19 19 19 19 19 19 20 20 20 20 20 20 20 20 21 21 21 21 22 22 23 23 23 23 23 24 25 25 26 26
21 21 21 21 21 23 25 26 26 25 25 25 24 22 22 23 23 22 22 22 21 21 21 21 21 21 21 21 21 21 21 20 20 19 19 19 19 19 19 19 19 19 19 19 19 19 20 20 20 20 20 20 20 20 20 19 19 19 19 19 19 20 20 20 20 20 20 20 20 20 20 20 21 21 21 21 21 22 22 22 22 22 23 24 24 25 25
22 21 20 21 21 22 24 25 25 25 25 24 24 22 22 23 23 23 22 21 21 21 21 21 21 21 21 20 20 21 21 20 20 19 19 19 19 19 19 19 19 19 19 19 19 19 19 19 19 20 20 20 20 19 19 19 19 19 19 19 19 19 19 20 20 20 20 20 20 20 20 20 20 21 21 21 21 21 21 22 22 22 22 23 23 23 24
22 21 20 21 20 21 22 23 24 25 24 24 24 22 22 22 23 23 22 22 21 21 21 21 22 21 21 20 19 20 20 20 20 19 19 19 19 19 19 19 19 19 19 18 18 19 18 18 19 19 19 20 19 19 19 19 19 19 19 19 19 19 19 19 20 20 20 20 20 20 20 20 20 20 21 21 21 21 21 21 22 22 22 22 23 23 23
21 21 20 20 20 20 22 23 24 24 24 24 24 22 21 22 23 23 23 22 21 21 21 21 21 21 20 19 19 20 20 19 19 19 19 19 19 19 19 19 18 18 18 18 18 18 18 18 18 18 18 19 19 18 18 19 18 18 18 19 19 19 19 19 20 20 20 20 20 20 20 20 20 20 21 20 20 21 21 21 21 22 22 22 22 22 23
21 21 20 20 20 21 23 24 24 24 24 25 24 21 20 23 23 23 23 22 21 21 21 21 21 21 20 19 20 20 19 19 19 18 18 18 18 18 18 18 18 18 18 18 18 18 17 17 18 18 18 18 18 18 18 18 18 18 18 18 18 19 19 19 19 20 20 20 20 20 20 20 20 20 21 20 20 21 21 21 21 21 21 21 21 22 22
21 21 20 20 21 22 23 22 23 24 25 24 22 20 21 22 23 23 23 22 22 22 21 21 21 21 20 20 20 19 19 18 18 18 18 18 18 18 18 18 18 18 18 17 17 17 17 17 17 17 17 17 17 17 17 17 17 17 18 18 18 19 19 19 19 19 20 20 20 20 20 20 20 20 21 21 20 20 21 21 21 21 20 20 20 21 21
20 21 20 20 21 22 23 22 23 24 24 22 21 21 21 21 21 22 22 22 21 21 21 21 20 20 20 20 19 19 18 18 18 17 17 17 17 17 18 18 17 17 17 17 17 17 17 17 17 17 17 17 16 16 17 17 17 17 17 17 18 18 18 18 19 19 19 19 20 20 20 20 20 20 20 20 20 20 20 20 20 20 20 21 20 21 21
20 20 20 20 20 22 22 23 24 23 22 21 21 21 20 20 20 21 20 20 21 21 20 20 20 19 19 19 18 18 18 17 17 17 17 16 17 17 17 17 17 17 17 16 16 16 16 16 16 16 16 16 16 16 16 16 16 17 17 17 17 17 18 18 18 18 19 19 19 20 20 19 20 20 20 20 20 20 20 20 20 20 20 20 20 20 21
20 20 20 20 21 21 21 23 23 21 21 21 21 20 20 20 20 20 20 20 20 20 20 19 19 19 19 18 18 18 18 17 16 16 16 16 16 17 17 17 17 17 16 16 16 16 16 16 16 16 16 16 15 15 15 15 16 16 16 17 17 17 17 17 18 18 18 18 19 19 19 19 19 20 20 20 20 20 20 20 19 19 19 19 20 20 20
21 20 21 21 21 20 21 21 21 21 21 21 21 21 21 20 20 20 19 19 19 19 19 19 19 19 18 18 18 18 18 17 16 16 16 16 17 17 17 17 16 16 16 16 16 16 16 16 15 15 15 15 14 14 15 15 15 15 16 16 16 16 17 17 17 17 18 18 18 19 19 19 19 19 19 19 19 19 19 19 19 19 19 19 19 19 19
21 21 21 21 20 20 21 21 21 21 21 21 21 21 21 21 20 20 19 19 19 19 19 19 19 18 18 18 17 17 17 16 15 16 16 17 17 17 17 16 16 16 16 16 16 16 15 15 15 15 14 14 14 14 14 15 15 15 15 15 16 16 16 16 17 17 17 18 18 19 19 19 19 19 19 19 19 19 19 19 19 19 19 19 18 19 19
21 21 21 20 20 20 21 21 21 21 22 21 21 22 21 20 20 20 20 20 20 20 19 19 19 18 18 17 17 17 17 16 15 16 16 17 17 17 16 16 16 16 16 16 15 15 14 14 14 14 14 14 14 14 14 14 14 14 14 15 15 15 16 16 16 16 17 17 18 18 19 19 19 19 19 19 19 18 18 18 18 18 18 18 18 18 18
21 20 20 20 20 20 20 21 21 22 22 22 22 21 20 20 20 19 18 19 20 20 19 19 18 18 17 17 17 17 16 15 15 16 16 17 17 16 16 16 16 16 16 15 15 14 14 13 14 14 14 13 13 13 13 13 13 13 14 14 14 15 15 16 16 16 17 17 17 17 18 18 18 19 18 18 18 18 18 18 18 18 18 18 18 18 18
20 20 20 20 20 20 19 20 20 21 21 21 21 20 20 20 20 19 18 18 19 19 18 17 18 18 17 16 16 16 15 14 15 16 17 16 16 16 16 16 16 16 15 15 14 14 13 13 13 13 13 13 12 12 12 12 12 12 13 13 14 14 15 15 16 16 16 16 17 17 17 17 18 18 18 18 18 18 18 18 18 18 18 18 18 18 18
20 19 19 19 19 19 19 18 19 19 19 20 20 20 20 20 20 20 20 19 18 19 18 17 17 18 17 16 15 15 15 15 16 17 16 16 16 16 16 16 16 15 15 14 13 13 13 13 13 13 12 12 12 12 12 11 11 12 12 12 13 14 14 15 15 16 16 16 16 16 17 17 17 18 18 18 18 18 18 18 18 18 17 18 18 18 17
19 18 18 18 18 18 18 18 19 19 19 19 19 19 20 20 19 19 20 20 19 19 19 18 17 17 16 16 15 14 14 16 17 17 16 16 16 16 16 16 15 14 14 13 13 13 13 13 12 12 12 12 11 11 11 11 11 11 11 11 12 13 14 14 15 15 16 16 16 16 17 17 17 17 18 18 18 18 18 18 18 18 17 18 18 18 18
18 18 18 18 18 18 18 18 18 18 18 18 18 18 18 18 18 18 19 19 19 19 18 17 18 17 16 16 16 15 15 16 17 17 16 16 16 16 16 15 14 14 13 13 13 13 12 12 12 12 11 11 11 11 11 11 11 11 11 10 11 12 13 14 15 15 16 16 16 16 16 17 17 17 17 17 17 17 18 17 17 17 17 17 18 18 18
18 18 18 18 18 18 18 18 18 17 17 17 18 18 17 17 18 18 18 17 17 18 17 16 17 18 18 17 17 16 16 16 17 16 16 16 16 15 15 14 13 13 13 13 13 12 12 12 11 11 11 11 10 10 10 10 10 10 10 10 10 11 12 13 14 15 15 15 15 15 16 16 16 16 16 16 16 16 17 17 17 17 18 18 18 18 18
18 18 18 18 18 18 18 18 18 17 16 17 17 17 17 18 18 19 18 17 17 18 17 16 16 18 18 18 18 17 16 16 16 17 17 16 15 14 14 13 13 13 13 12 12 12 12 11 11 11 11 10 10 10 10 10 10 10 10 10 10 11 11 12 13 13 14 14 15 15 15 15 16 16 16 16 16 16 16 16 17 17 18 18 17 17 18
18 18 18 17 17 18 17 17 17 17 16 16 16 16 16 17 18 18 18 18 17 17 18 18 17 17 18 18 17 16 16 16 16 16 16 15 14 14 13 13 13 13 12 12 12 11 11 11 11 11 10 10 10 10 10 10 10 10 10 10 10 11 11 11 12 13 13 14 14 15 15 15 15 16 16 16 16 16 16 16 16 16 17 17 17 17 17
18 18 18 17 17 17 17 16 16 16 16 16 16 16 16 16 17 17 18 17 17 16 17 18 18 17 16 16 16 16 16 16 15 15 14 14 13 13 13 13 13 13 12 12 11 11 11 11 10 10 10 10 10 10 10 10 9 9 9 10 10 10 10 11 11 12 12 13 14 14 14 15 15 15 15 16 16 16 16 16 15 15 16 16 16 16 16
17 17 17 17 16 16 16 16 16 16 16 16 16 16 16 16 16 17 17 17 16 16 15 16 16 16 16 16 16 15 15 14 14 14 14 14 13 13 13 13 13 12 12 12 11 11 11 10 10 10 10 9 9 9 10 10 9 9 9 9 9 10 10 10 11 11 12 12 13 13 14 14 15 15 15 15 15 15 15 15 15 15 15 15 15 15 15
16 16 17 16 16 15 16 16 16 16 16 15 15 15 15 15 16 16 16 16 15 15 15 14 15 15 15 15 15 16 15 14 14 14 14 13 13 13 13 13 12 12 11 11 11 11 10 10 10 10 9 9 9 9 9 9 9 9 9 9 9 9 9 9 10 10 11 11 12 13 13 14 14 14 14 15 15 15 15 15 15 15 15 15 15 15 15
16 16 16 16 16 16 16 16 16 16 16 15 15 15 15 15 15 16 16 15 14 14 14 14 14 14 15 15 15 16 15 15 14 14 13 13 13 13 13 13 12 12 11 11 11 11 10 10 10 10 9 9 9 9 9 9 9 9 9 9 9 9 9 9 9 10 10 10 11 12 12 12 13 13 13 13 14 14 14 14 14 14 14 14 14 14 14
15 15 15 15 15 15 15 15 15 15 15 15 15 15 15 15 15 15 15 14 14 14 14 14 14 14 14 15 15 15 14 14 14 14 13 13 12 12 12 12 12 11 11 11 11 10 10 10 10 9 9 9 9 9 9 9 9 9 8 8 8 8 8 9 9 9 9 10 10 11 11 11 12 12 12 13 13 13 13 13 13 13 14 14 14 14 14
14 14 14 15 14 14 15 14 14 14 14 14 14 13 13 13 13 13 13 13 13 14 14 14 14 14 14 14 14 14 13 13 13 13 12 12 12 12 12 12 12 11 11 11 10 10 10 10 10 9 9 9 9 9 9 9 8 8 8 8 8 8 8 8 9 9 9 9 9 10 10 10 11 11 11 12 12 12 12 12 13 13 13 13 13 14 14
14 14 14 14 14 14 14 14 14 14 13 13 12 11 12 12 13 13 13 13 13 13 14 14 14 14 13 13 13 13 12 12 12 11 11 12 11 11 11 11 11 11 11 10 10 10 10 10 9 9 9 9 9 9 9 8 8 8 8 8 8 8 8 8 8 8 9 9 9 9 9 10 10 10 11 11 11 12 12 12 12 12 12 12 13 13 13
13 13 13 13 13 13 13 13 14 14 13 13 12 11 11 12 12 13 13 13 13 13 14 14 14 13 13 13 13 12 12 12 11 10 11 11 11 11 11 11 11 11 10 10 10 10 10 10 9 9 9 9 8 8 8 8 8 8 8 8 7 7 7 7 8 8 8 8 8 8 9 9 10 10 10 11 11 11 11 11 11 11 12 12 12 12 13
13 12 12 12 13 13 13 13 13 13 12 12 11 11 11 12 12 12 13 13 13 13 13 13 13 13 12 12 12 12 12 12 11 11 11 11 11 11 11 11 11 11 10 10 10 10 9 9 9 9 9 8 8 8 8 8 8 8 8 7 7 7 7 7 7 7 8 8 8 8 9 9 9 10 10 10 10 10 10 11 11 11 11 12 12 12 12
13 13 12 12 13 13 13 13 13 13 12 11 11 11 11 11 12 12 12 13 13 12 13 13 13 13 12 12 12 12 12 12 12 11 11 11 11 11 11 11 11 11 10 10 9 9 9 9 9 9 8 8 8 7 7 7 7 7 7 7 6 6 6 7 7 7 7 8 8 8 9 9 9 9 9 9 10 10 10 10 10 11 11 11 11 11 11
12 13 12 12 12 12 13 13 13 13 12 12 12 12 11 11 11 12 12 12 12 12 12 12 12 12 12 12 12 11 11 12 12 12 11 11 11 11 11 11 11 11 10 10 10 9 9 9 9 8 8 8 7 7 7 7 7 7 6 6 6 6 6 6 7 7 7 8 8 8 8 8 8 8 8 9 9 9 9 10 10 10 10 11 11 11 11
11 12 12 12 12 12 12 13 13 13 12 12 12 12 12 11 11 11 11 11 12 12 12 11 11 12 12 11 11 10 11 11 11 11 11 11 11 11 11 11 11 11 10 10 9 9 9 9 8 8 8 7 7 7 7 7 7 6 6 6 6 6 6 6 7 7 7 7 7 7 8 8 8 8 8 8 8 8 9 9 9 9 9 10 10 10 10
10 11 11 11 11 11 11 11 12 12 13 12 12 12 12 12 11 11 11 11 11 12 12 11 11 11 11 11 10 10 10 10 11 11 11 11 11 11 11 10 10 10 10 9 9 9 8 8 8 8 7 7 7 7 7 6 6 6 6 6 5 5 5 6 6 6 6 7 7 7 7 7 7 7 7 7 7 8 8 8 8 8 9 9 9 9 9
10 10 10 11 11 11 11 11 11 12 12 12 12 12 12 11 11 11 11 11 11 11 11 11 11 11 11 11 10 10 10 11 11 11 11 11 11 10 9 9 10 10 9 9 9 9 8 8 8 7 7 7 7 6 6 6 6 5 5 5 5 5 5 5 6 6 6 6 6 6 6 6 6 6 7 7 7 7 7 7 8 8 8 8 8 8 8
9 10 10 10 10 10 10 10 11 11 11 12 12 12 11 11 11 11 11 11 11 11 11 11 11 11 11 11 10 10 11 11 12 12 12 11 11 10 9 9 9 9 9 9 8 8 8 8 7 7 7 7 6 6 6 6 5 5 5 5 5 5 4 5 5 5 5 5 5 5 5 5 5 6 6 6 6 6 7 7 7 7 7 7 7 7 7
9 9 9 9 9 10 10 10 10 10 11 11 11 11 11 11 11 11 10 10 11 11 11 11 11 11 11 11 10 10 11 11 12 11 11 11 11 11 10 10 9 9 9 8 8 8 8 7 7 7 7 6 6 6 6 5 5 5 5 5 5 4 4 4 4 4 4 4 4 5 5 5 5 5 5 5 6 6 6 6 6 6 6 6 6 6 6
9 9 9 9 9 10 10 10 10 10 10 11 11 11 11 11 11 10 10 10 10 10 10 11 11 11 11 11 10 10 11 11 11 11 11 10 10 10 10 10 9 9 9 9 8 8 8 7 7 7 7 6 6 6 6 5 5 5 4 4 4 4 3 3 3 3 3 3 3 4 4 4 4 4 5 5 5 5 5 5 5 6 6 6 6 6 6
9 9 9 9 9 9 9 9 10 10 10 11 11 10 10 10 10 10 10 10 10 10 10 11 11 11 11 11 11 11 11 11 11 11 10 9 8 8 9 9 9 9 9 9 8 8 8 7 7 7 7 6 6 6 5 5 5 4 4 4 4 3 3 2 2 2 2 2 2 3 3 4 4 4 4 4 4 4 5 5 5 5 5 5 5 5 5
8 9 9 8 9 9 9 9 10 10 10 10 10 9 9 10 9 9 10 10 11 11 11 11 11 11 11 12 12 12 12 12 11 11 11 11 10 9 9 9 9 9 9 9 8 8 7 7 7 7 6 6 6 6 5 5 5 4 4 4 3 3 3 2 2 2 1 1 2 2 3 3 3 3 3 3 4 4 4 4 4 4 4 4 4 4 4
8 8 8 8 8 9 9 9 9 10 10 9 9 9 9 9 9 9 9 10 10 11 11 11 11 11 12 12 12 12 11 11 11 11 11 11 10 10 9 9 9 9 9 8 8 8 7 7 7 7 6 6 6 6 5 5 5 4 4 3 3 3 3 3 2 2 1 1 1 2 2 2 2 2 2 2 3 3 3 3 3 3 3 3 3 3 3
7 7 8 8 8 8 8 8 8 9 9 8 8 9 9 9 9 9 9 9 10 10 10 10 11 12 12 12 12 12 12 11 10 10 10 10 10 10 10 9 9 9 9 8 8 8 7 7 7 7 6 6 6 6 5 5 5 4 4 3 3 3 3 3 2 2 1 1 1 1 1 1 1 1 1 2 2 2 2 2 2 2 2 3 3 3 3
7 7 8 8 8 8 8 8 8 8 8 8 8 9 9 9 9 9 9 9 10 10 10 10 11 12 12 12 12 12 12 11 11 10 10 10 10 10 10 9 9 9 9 8 8 8 7 7 7 6 6 6 6 6 5 5 5 4 4 3 3 3 3 2 2 2 1 1 1 1 1 1 1 1 1 1 1 2 2 2 2 2 2 2 2 2 2
7 8 8 8 8 8 7 7 8 8 8 8 8 8 8 8 8 8 9 9 10 10 10 10 11 11 11 12 12 11 11 11 11 10 10 10 10 10 9 9 9 9 9 8 8 8 7 7 7 7 6 6 6 6 5 5 5 4 4 3 3 3 3 2 2 2 1 1 1 1 0 0 0 0 1 1 1 1 1 1 1 1 1 1 2 2 1
7 7 7 7 7 7 7 7 7 7 8 8 8 8 9 9 9 9 9 9 9 9 9 9 10 10 11 11 11 11 11 11 10 10 10 10 10 10 9 9 9 9 9 8 8 8 8 7 7 7 6 6 6 6 5 5 5 4 4 4 3 3 3 2 2 2 1 1 1 1 1 0 0 0 0 0 0 0 0 1 1 1 1 1 1 1 1
8 8 7 7 7 7 7 7 7 7 8 8 8 8 9 9 9 9 9 9 9 9 9 9 9 10 11 11 10 10 10 10 10 10 10 10 10 9 9 9 9 9 8 8 8 8 8 7 7 7 6 6 6 6 6 5 5 5 4 4 3 3 3 2 2 2 2 1 1 1 1 1 1 0 0 0 0 0 0 0 0 1 0 1 1 1 1
Height
771 766 764 763 765 769 769 770 771 769 765 764 771 783 788 786 799 820 822 816 821 823 820 821 821 820 823 824 824 824 825 825 825 825 827 827 827 828 828 828 828 828 828 827 826 826 825 825 826 825 825 826 827 828 828 829 830 831 832 834 835 836 836 835 834 834 835 836 837 838 839 839 840 843 846 849 850 850 849 849 850 850 850 851 852 852 853
772 768 766 765 766 770 773 775 774 771 770 771 776 786 788 787 796 808 813 818 822 818 816 818 817 817 820 821 823 824 826 826 826 826 828 829 830 830 829 829 829 829 829 828 828 829 828 828 828 827 828 829 830 831 831 831 831 832 833 834 835 835 835 835 834 834 835 836 836 836 837 837 837 840 844 848 849 848 848 848 848 848 849 849 849 849 849
777 772 768 768 770 773 776 779 778 776 779 781 784 790 792 796 805 809 812 822 825 817 813 815 815 817 819 822 825 827 827 828 828 829 830 831 832 833 832 831 831 831 831 830 831 832 832 832 831 831 832 833 833 833 834 834 834 834 835 836 836 835 835 835 835 835 835 835 834 834 834 835 835 837 842 846 847 847 846 846 847 846 847 847 846 846 846
786 778 775 775 772 772 778 782 783 783 785 787 788 789 788 794 807 815 819 827 827 818 814 816 818 819 822 825 827 827 829 829 829 831 832 833 834 834 834 834 833 833 833 833 833 835 836 835 835 836 837 838 838 838 839 838 836 835 836 836 836 836 836 836 836 836 836 835 834 834 834 835 836 837 840 844 845 844 844 844 845 844 844 844 843 844 844
792 785 782 775 774 786 795 790 786 786 785 785 788 788 786 787 796 808 817 820 819 815 813 818 822 822 824 827 827 828 830 829 829 831 833 834 835 835 836 836 836 836 836 835 836 836 836 837 837 838 839 840 841 841 841 840 838 837 838 838 838 839 838 838 837 837 836 835 835 835 835 836 837 838 839 840 841 841 841 842 842 842 842 842 841 841 841
797 792 781 778 792 811 808 787 778 781 782 783 789 792 791 789 790 796 804 810 812 813 814 817 821 822 823 825 825 826 827 828 830 832 833 834 835 836 837 837 838 838 837 837 838 837 837 838 838 839 840 840 842 842 842 842 841 840 840 839 840 840 839 838 837 837 836 835 835 836 836 836 837 837 838 837 837 838 838 839 839 839 839 839 839 840 840
799 792 787 800 818 815 795 780 775 775 775 779 787 793 794 793 793 797 804 810 813 814 814 815 817 820 821 823 824 825 825 826 829 832 834 835 835 837 839 839 839 840 839 839 840 839 840 840 839 840 840 841 842 843 843 843 842 841 841 840 840 840 839 838 838 837 837 836 835 836 837 836 835 835 836 835 835 836 836 836 836 836 836 837 837 837 838
799 799 801 815 818 800 785 783 779 776 779 782 791 804 805 798 795 799 806 811 812 813 815 815 816 819 820 822 825 825 826 826 828 831 834 835 835 837 839 840 841 841 841 842 842 842 842 842 841 841 841 842 842 843 843 843 842 842 841 841 840 840 839 838 838 838 837 836 836 836 838 838 835 834 834 834 834 834 834 834 834 834 834 834 834 834 835
800 806 811 811 808 802 796 792 785 782 785 784 789 807 813 803 797 802 807 811 813 813 815 816 817 818 821 827 831 828 826 828 828 831 833 834 836 837 839 841 842 842 843 843 843 843 844 844 844 843 843 843 843 843 844 844 843 843 842 841 841 841 840 839 839 838 838 837 837 837 838 839 837 835 833 833 833 832 832 832 832 832 832 832 832 832 832
799 805 814 816 819 818 808 798 788 782 784 782 781 799 814 807 800 802 805 810 813 814 815 816 816 819 827 837 838 832 829 829 829 832 834 835 836 837 839 841 843 844 844 844 844 845 845 846 846 846 845 845 844 844 845 845 845 844 843 843 843 842 842 841 840 839 839 838 838 837 837 838 838 835 833 832 832 831 831 830 830 830 830 830 830 830 830
802 805 815 821 824 819 806 797 789 783 784 781 782 806 822 810 799 801 803 808 813 813 814 815 815 822 836 843 839 832 831 831 831 833 834 835 837 838 839 841 843 844 845 845 846 846 846 847 847 847 846 846 845 845 845 845 846 846 845 845 844 843 843 842 841 840 839 838 838 837 836 836 835 834 833 831 831 830 830 830 829 829 829 828 828 828 828
808 809 816 819 817 810 800 794 790 786 783 780 794 826 830 807 798 802 800 803 809 810 812 816 817 824 833 837 834 831 830 831 832 833 834 835 837 838 839 841 843 844 845 846 847 847 848 848 848 848 847 847 846 846 846 845 845 845 845 845 844 843 843 842 841 840 839 838 837 836 836 835 834 834 832 831 830 829 828 829 828 828 828 827 826 826 826
809 810 816 819 813 803 796 795 791 785 783 789 808 826 817 800 800 802 798 802 807 807 811 816 818 821 824 826 828 829 829 831 833 833 834 835 837 839 840 842 843 845 846 847 848 849 849 849 849 849 848 848 847 847 846 846 846 845 845 845 844 843 842 841 841 840 838 838 837 836 835 835 834 833 832 831 829 828 827 828 828 828 827 827 826 825 824
810 810 815 822 817 802 793 793 788 783 791 807 814 810 802 800 801 799 798 803 806 807 812 814 816 820 822 824 827 829 829 831 833 834 835 836 838 839 841 842 844 846 847 848 848 849 850 850 850 850 849 849 849 848 848 847 847 846 845 844 843 843 842 841 840 839 838 837 836 835 834 833 832 832 831 830 829 828 827 827 827 827 827 826 825 824 824
812 814 820 827 823 805 792 792 791 791 800 809 807 802 802 803 801 800 803 805 805 808 813 815 817 820 822 825 828 829 830 832 833 835 836 837 838 840 842 844 845 845 846 847 847 848 849 850 850 850 850 850 849 849 849 848 848 847 845 844 843 842 841 840 839 838 837 836 835 834 833 832 831 831 831 830 830 828 828 827 827 826 826 825 824 824 823
815 822 823 820 813 802 793 794 799 801 801 801 800 802 805 804 802 804 806 807 807 808 811 815 819 821 824 827 828 829 832 833 833 835 836 837 839 841 842 844 845 845 846 846 846 848 848 849 849 849 849 849 849 849 849 848 847 846 845 844 843 842 841 840 838 837 836 835 834 833 833 832 832 831 831 831 830 829 828 827 827 827 826 825 824 823 822
809 813 812 806 802 800 796 796 799 801 800 800 801 802 804 805 806 806 808 811 812 810 811 816 820 821 825 827 827 829 832 832 833 835 836 838 840 841 842 844 845 845 846 847 847 848 848 848 849 848 848 848 848 848 848 847 846 845 844 844 842 841 840 839 838 837 835 834 834 833 832 832 832 831 831 830 830 829 829 828 828 827 826 826 825 823 822
804 804 802 801 802 801 798 797 799 800 800 802 802 802 804 807 807 808 809 812 813 813 814 817 820 823 825 826 828 830 831 832 834 835 837 839 840 841 843 845 845 846 847 848 849 849 849 849 848 848 848 847 847 847 847 846 845 844 843 842 841 841 840 838 837 837 835 834 833 832 832 831 831 830 830 829 829 829 828 828 828 827 827 826 826 825 823
808 809 806 804 804 803 800 800 801 800 801 802 803 804 806 807 808 809 810 811 813 815 816 817 820 824 824 826 829 831 831 834 835 836 838 840 841 843 844 845 846 848 848 849 850 850 850 850 849 848 848 847 847 847 846 845 844 843 842 841 840 840 839 838 837 836 835 834 833 832 831 831 830 829 829 828 828 828 827 827 827 827 827 826 826 825 824
808 810 807 804 804 803 801 801 802 802 802 803 803 804 806 807 809 810 811 812 813 816 817 818 821 823 825 827 829 831 833 835 836 837 839 840 841 843 845 846 847 848 848 849 850 850 851 851 850 849 849 848 848 847 846 845 844 843 842 841 840 839 838 837 837 835 834 834 833 832 831 830 830 829 828 828 828 827 827 827 826 826 826 825 825 824 823
809 810 807 806 807 808 806 804 803 803 803 803 804 805 806 807 809 811 811 812 813 815 818 819 821 824 826 827 828 832 834 835 836 838 839 840 842 843 845 846 847 848 849 850 851 851 851 851 850 850 850 849 849 848 847 846 844 843 842 841 839 838 837 837 836 835 835 834 833 832 831 830 829 829 828 828 828 827 827 827 826 825 824 824 823 823 822
814 814 811 810 812 814 812 809 806 805 805 804 805 806 806 807 809 810 812 813 814 814 817 818 820 824 827 827 829 832 833 834 836 837 838 840 842 843 845 846 847 848 849 850 851 852 852 851 851 851 850 850 849 848 847 846 845 844 843 841 839 838 837 836 835 834 834 834 833 832 831 829 828 828 827 827 827 827 826 825 825 825 824 823 822 821 819
814 813 811 810 812 814 813 810 808 807 807 807 807 807 807 808 808 808 810 813 815 815 816 818 819 822 825 827 829 831 832 834 835 836 838 840 842 843 845 846 847 848 850 850 851 852 852 852 851 851 851 850 850 849 848 847 845 844 843 842 840 839 837 836 835 833 833 832 832 831 830 829 828 827 826 826 826 826 825 824 824 823 823 822 821 820 818
811 811 810 809 810 812 812 811 810 809 808 809 811 810 810 810 809 808 809 810 812 814 816 817 818 820 823 825 827 829 831 833 834 836 838 839 841 843 844 845 847 848 849 850 851 851 851 852 851 851 851 851 850 849 848 847 846 845 843 842 841 839 837 836 834 833 832 831 830 829 829 827 827 826 825 825 824 824 824 823 823 822 821 821 820 819 818
809 809 808 807 809 810 809 809 810 810 809 810 811 812 812 812 812 811 810 810 810 812 814 816 817 818 820 823 825 827 830 832 833 835 837 839 841 842 843 845 847 848 849 850 850 850 851 851 851 851 851 850 850 849 848 847 846 845 843 842 841 839 837 836 834 832 831 830 829 828 827 826 826 825 825 824 823 823 822 822 822 821 820 820 819 818 816
807 806 807 807 808 808 808 809 810 810 810 811 811 811 811 811 812 812 812 811 811 810 811 814 816 817 818 820 823 825 828 831 833 835 836 838 840 841 843 845 846 847 848 849 850 850 851 850 850 850 850 850 850 849 847 846 846 844 843 842 841 839 838 836 834 833 831 830 829 828 827 826 825 825 824 824 823 822 821 820 820 819 818 818 817 817 816
806 806 807 810 811 810 809 810 810 810 811 812 812 811 811 812 812 812 811 811 811 811 810 812 813 815 817 818 821 824 826 829 831 833 835 837 839 840 843 844 845 846 848 848 849 850 850 850 850 850 850 850 849 848 847 846 845 843 842 841 840 838 837 836 834 833 831 830 829 828 827 826 825 824 824 823 822 821 820 819 818 818 817 816 815 815 814
807 806 807 810 811 811 810 809 810 809 810 811 812 812 812 813 813 812 811 811 811 811 811 811 812 813 815 817 819 822 825 827 829 831 833 835 837 839 841 842 844 845 846 846 848 849 849 850 851 850 850 850 849 848 847 845 843 842 841 840 839 838 836 835 834 833 831 830 829 828 827 826 825 824 823 822 821 820 819 818 817 816 816 815 814 814 813
808 807 807 808 808 808 808 808 809 809 809 809 810 810 811 812 812 812 811 810 810 811 812 812 812 812 813 815 817 820 823 825 827 829 831 833 835 837 839 840 842 843 844 845 846 847 848 849 850 850 850 849 848 848 847 845 843 842 841 839 839 837 836 835 834 832 831 830 828 827 826 825 824 823 822 821 820 819 818 817 816 815 814 813 813 812 812
808 807 807 807 807 807 808 808 808 808 808 808 809 809 809 810 810 810 810 809 809 810 811 812 812 812 813 814 815 817 819 822 824 827 830 831 833 835 837 838 840 841 843 844 844 845 847 848 848 849 849 848 848 848 846 845 843 842 841 840 839 837 836 835 834 832 831 830 828 827 826 824 823 822 821 820 819 818 817 816 814 813 813 812 811 811 810
809 808 808 808 807 808 808 808 808 808 807 807 808 808 808 809 809 808 809 809 808 809 810 812 812 812 812 813 814 815 817 820 823 826 828 831 832 834 835 836 837 839 841 842 843 844 845 846 847 847 847 847 847 846 845 844 843 842 841 840 838 837 836 835 833 832 831 829 828 827 825 824 823 822 821 819 818 817 816 815 813 812 811 810 809 809 808
810 809 809 808 808 808 808 808 808 808 807 807 807 806 806 806 806 806 807 808 807 807 809 811 812 812 812 813 815 816 817 820 822 825 827 829 831 833 834 835 836 837 839 841 842 843 844 845 846 846 846 846 845 844 844 843 842 841 840 839 838 837 835 834 833 832 830 829 828 826 825 824 823 821 820 819 817 816 815 814 812 811 810 809 808 807 806
811 811 810 809 809 809 808 808 807 808 807 807 807 806 804 804 804 804 805 805 805 806 807 808 811 812 813 813 815 816 818 820 822 824 825 828 830 831 833 834 835 836 839 840 841 843 843 844 844 845 845 844 844 843 843 842 841 840 840 839 838 836 835 833 832 831 830 829 828 826 825 824 822 821 820 818 817 816 814 813 811 810 808 807 806 805 805
810 810 809 808 808 808 807 807 806 806 806 806 806 805 804 803 802 802 803 803 803 804 804 805 808 811 813 813 813 814 816 819 822 823 824 826 828 830 831 833 834 836 838 840 841 842 842 843 843 844 843 843 843 842 841 841 840 839 838 837 837 836 834 833 832 830 829 828 827 825 824 823 821 820 819 818 816 815 813 812 810 809 807 806 805 804 803
809 808 807 806 805 805 804 804 804 804 804 804 804 803 803 802 801 801 801 801 801 801 802 803 806 810 812 812 811 811 813 816 819 822 823 824 827 829 830 832 834 836 838 839 840 841 841 842 842 843 842 842 842 841 840 840 839 838 837 836 835 835 834 833 831 829 828 827 825 824 823 821 820 819 818 816 815 814 812 811 810 808 806 804 803 802 802
808 808 807 806 805 804 803 802 802 802 802 803 802 801 801 800 799 799 798 798 798 799 800 801 803 806 809 810 810 811 813 815 817 819 821 823 825 827 829 831 834 836 837 839 839 840 841 841 842 842 841 841 841 840 839 839 838 837 837 835 834 833 833 832 830 829 827 826 824 823 821 820 819 817 816 815 814 812 811 810 808 806 805 803 802 801 800
807 807 806 805 804 804 803 801 801 800 800 800 800 799 798 797 797 797 796 796 797 797 798 798 799 802 805 807 808 811 814 815 815 817 819 822 824 826 829 831 833 834 836 837 838 839 840 840 840 840 840 840 839 839 839 838 838 837 835 834 833 832 831 830 829 827 826 824 823 822 820 819 817 816 815 814 812 811 810 808 807 805 803 802 800 799 798
806 805 805 804 803 803 801 800 799 799 798 797 797 796 796 795 794 794 794 794 794 795 796 797 798 800 803 806 808 809 811 813 813 815 818 820 823 825 827 830 832 833 835 836 837 838 839 839 839 839 839 839 839 838 838 837 837 836 834 833 832 831 830 829 827 826 824 823 822 821 819 818 816 815 814 812 811 809 808 806 805 804 802 800 799 798 797
804 803 803 802 801 800 799 798 797 796 796 795 794 793 793 792 792 792 792 792 792 793 795 796 798 799 801 804 806 808 810 812 813 815 817 819 822 825 827 829 831 832 834 835 836 837 837 837 837 838 838 838 838 837 837 836 835 834 833 832 831 830 828 827 826 825 823 822 821 819 818 817 816 814 812 811 809 808 806 805 803 802 800 799 798 797 795
802 801 800 799 798 798 797 796 795 794 793 793 792 791 790 790 789 789 790 790 790 792 793 794 795 797 799 801 803 806 809 812 813 815 816 819 822 824 826 829 830 832 833 834 835 836 836 836 836 837 837 837 837 836 836 835 834 833 832 831 830 829 827 826 824 823 822 821 820 818 817 816 814 813 811 810 808 806 805 803 802 800 799 797 796 795 794
800 799 798 797 796 795 794 793 792 791 790 790 789 788 787 787 787 787 787 787 788 790 791 792 793 794 797 799 802 805 808 810 811 813 815 818 821 824 826 828 830 831 832 833 834 834 835 835 835 835 836 835 835 835 834 833 832 831 830 829 829 828 826 824 823 822 820 819 818 817 816 815 814 812 810 808 807 805 803 802 800 799 797 796 795 794 793
798 797 795 794 793 792 791 790 789 788 787 787 786 786 785 785 784 784 784 784 785 787 789 790 792 793 796 799 802 805 807 809 810 812 815 818 820 823 825 827 829 830 832 833 833 833 833 833 834 834 834 834 834 833 832 831 831 830 829 828 827 826 825 823 822 821 820 818 817 816 815 814 813 811 809 807 805 803 802 800 799 797 796 795 794 793 792
796 794 793 791 790 788 787 787 786 785 784 784 783 783 783 782 781 782 782 783 783 784 786 788 790 793 795 799 802 804 806 807 809 812 815 818 820 822 823 826 828 830 831 831 831 831 832 832 832 832 832 832 832 831 831 830 829 829 828 827 826 825 824 822 821 820 819 818 816 815 814 813 811 809 807 806 804 802 801 799 797 796 795 793 792 791 790
793 791 790 788 787 785 784 784 783 782 782 781 780 780 780 779 779 780 781 781 782 782 784 786 789 792 796 798 800 802 804 805 808 811 815 818 821 822 823 825 827 828 829 829 829 830 830 830 831 831 831 831 831 830 830 829 828 827 826 825 824 823 822 821 821 820 818 817 816 814 813 811 810 808 806 804 803 801 799 798 796 794 793 792 791 789 788
791 789 787 786 784 783 782 781 780 779 779 778 777 778 778 777 777 777 779 780 780 781 783 785 788 791 794 796 798 800 802 804 807 811 814 817 820 822 824 825 826 827 827 827 828 828 829 829 830 830 830 830 830 829 829 828 827 826 824 824 823 822 821 820 820 819 818 816 815 813 812 810 808 806 805 803 802 800 798 796 795 793 792 790 789 788 787
789 786 785 783 781 780 779 778 778 777 776 776 776 777 777 776 775 775 778 780 780 779 781 784 786 789 792 795 797 800 803 806 808 811 813 815 818 820 822 824 825 825 826 826 826 827 828 829 829 829 829 829 828 828 827 826 825 824 823 822 821 820 820 819 819 818 817 816 814 812 811 809 807 806 804 802 801 799 797 796 794 792 791 789 788 787 786
787 784 782 780 778 776 776 775 775 775 774 774 775 775 775 775 775 775 776 778 779 779 781 783 786 789 792 794 797 800 803 806 809 811 813 814 816 818 820 822 823 824 825 825 825 826 827 827 827 827 827 827 826 826 825 824 823 822 821 821 820 820 819 819 818 817 816 815 813 812 810 808 807 805 803 801 800 798 797 795 793 791 790 789 787 786 785
785 782 780 777 776 774 773 773 773 773 773 773 774 774 774 775 776 776 777 778 780 783 785 786 788 790 793 796 799 801 803 806 808 811 813 814 816 817 819 821 822 823 824 824 825 825 826 826 826 826 825 825 825 824 823 823 822 821 821 820 820 819 819 818 817 816 815 814 813 811 809 808 806 804 802 801 799 798 796 794 793 791 790 788 787 785 784
783 780 778 776 775 773 772 772 772 772 772 772 773 774 774 775 776 778 779 780 782 785 787 788 789 791 794 797 800 802 804 806 808 810 812 814 815 817 819 820 821 822 823 823 824 824 824 824 824 824 824 824 823 823 822 822 822 821 820 820 820 819 818 817 816 815 814 813 812 811 809 807 806 804 802 800 798 797 795 794 792 791 789 788 787 785 784
783 780 777 775 774 773 772 771 770 770 770 771 772 773 774 776 777 779 780 781 783 785 788 790 792 794 796 798 801 804 805 807 808 810 812 814 815 816 818 819 820 821 822 822 823 823 824 824 823 823 823 823 823 823 822 822 821 820 820 819 819 818 817 817 816 815 814 812 811 810 808 807 805 803 801 800 798 796 795 793 792 790 789 788 786 785 783
785 781 779 777 776 775 773 772 770 769 770 772 773 774 774 776 779 781 782 783 786 788 791 793 795 797 798 800 802 805 806 808 810 811 812 814 815 816 817 818 819 820 821 821 822 822 823 823 823 822 822 822 822 822 821 821 820 820 819 819 818 817 817 816 815 814 813 812 811 809 808 806 804 803 801 799 798 796 795 793 792 790 789 787 786 785 783
787 784 782 781 779 777 776 775 774 772 772 775 776 776 777 779 782 784 785 787 789 791 794 796 797 799 800 801 803 805 807 809 810 811 813 814 814 815 816 817 818 819 820 821 821 821 821 821 821 821 821 821 821 821 820 820 819 819 818 818 817 817 816 815 814 813 812 811 810 808 807 805 804 802 800 799 797 796 795 793 792 790 788 787 786 784 783
Wind_Speed
2 3 5 7 7 5 6 9 9 7 6 8 7 6 7 6 7 8 9 10 13 12 11 10 9 10 10 9 9 9 8 9 10 11 12 12 12 11 10 9 8 8 8 10 14 16 16 18 18 17 19 18 15 15 16 14 12 10 9 9 7 6 8 10 10 12 15 17 17 17 18 19 18 13 11 15 19 21 24 28 31 31 30 30 30 31 31
5 6 7 7 7 7 8 9 8 7 8 8 8 7 5 7 11 14 13 10 9 8 9 10 9 8 9 9 9 9 8 9 11 12 13 12 11 11 10 9 8 7 8 11 16 18 18 18 18 16 17 17 15 13 13 14 13 11 9 9 8 7 7 7 7 7 8 10 12 15 16 16 17 18 16 17 19 19 19 21 25 29 30 29 30 31 33
5 7 8 7 7 8 9 10 10 9 11 10 10 10 11 13 14 14 15 12 6 4 6 9 8 8 8 9 9 9 8 9 11 12 12 12 11 10 9 9 8 8 10 13 17 18 18 18 18 18 18 18 18 15 13 12 14 14 14 13 13 14 13 11 11 10 9 8 8 10 14 16 16 19 22 25 25 21 18 16 17 21 25 28 29 29 31
3 6 8 7 7 9 10 10 10 7 7 8 8 10 12 15 16 15 13 10 5 5 8 10 10 11 11 11 10 9 8 9 12 12 12 11 11 10 8 7 8 8 10 12 15 16 17 18 19 19 18 18 18 18 16 15 15 16 17 16 15 15 14 12 12 13 12 11 10 8 8 12 15 18 22 25 24 21 19 17 16 16 19 25 29 29 28
3 6 7 5 6 7 5 5 5 4 3 7 7 8 12 17 19 14 10 8 7 9 12 12 12 13 12 10 9 9 9 9 11 12 11 11 10 9 7 6 7 7 9 12 15 15 16 19 20 20 20 19 18 18 18 17 18 18 18 17 16 15 13 12 11 11 11 12 11 9 8 7 9 13 17 17 16 14 14 15 16 17 17 20 25 29 29
2 7 6 5 6 4 3 6 5 4 7 10 9 10 12 14 12 9 8 9 9 9 12 14 13 11 10 9 8 8 8 9 10 11 11 10 10 8 7 6 7 9 11 14 17 18 17 18 20 21 22 21 19 19 19 18 18 17 16 16 17 15 14 13 13 12 11 10 10 9 8 7 5 4 6 7 7 8 9 11 13 15 17 18 21 24 25
1 4 5 6 3 2 6 6 4 4 11 13 12 9 8 10 13 15 14 12 10 9 11 12 12 11 10 8 7 7 8 9 10 11 10 10 10 8 6 6 8 11 13 15 19 20 19 18 19 20 20 20 19 19 19 19 19 18 17 17 16 15 15 15 15 14 13 11 9 9 9 8 7 6 4 2 1 3 6 8 10 12 13 16 18 19 19
1 3 4 3 3 5 5 7 7 5 9 14 14 8 5 6 14 16 14 11 11 11 11 10 11 11 10 8 6 6 7 8 9 10 9 9 9 9 8 8 11 14 16 18 20 22 21 20 20 19 18 17 17 16 16 17 18 18 18 19 18 16 16 15 15 15 15 13 10 9 9 10 10 9 9 9 7 4 4 6 8 10 11 12 14 16 16
2 2 2 1 1 2 5 5 4 2 3 9 11 7 3 3 9 12 11 11 11 11 11 10 9 10 11 8 5 5 6 7 9 11 11 11 11 12 14 16 18 19 20 22 23 23 22 21 19 17 15 14 15 16 15 15 15 16 17 18 18 17 16 15 15 14 14 15 13 12 11 11 12 12 11 11 11 9 7 6 7 9 10 11 11 12 13
2 4 3 3 2 0 3 6 6 3 3 6 9 9 4 1 6 11 12 12 12 11 11 11 9 9 9 7 4 5 7 9 11 13 14 15 15 16 19 22 22 22 22 23 23 22 22 20 18 16 14 13 15 16 15 15 15 14 15 15 15 16 16 15 15 13 13 14 14 14 14 12 12 13 14 13 12 10 9 8 8 8 9 10 10 11 11
3 4 3 1 2 3 5 7 7 4 4 7 8 8 2 4 5 11 13 12 12 12 11 11 10 8 7 5 4 4 7 11 12 12 13 16 19 20 22 23 22 21 21 21 22 21 20 19 16 14 13 13 14 15 15 15 16 16 16 14 13 14 13 13 14 13 13 15 14 13 15 14 11 14 16 14 11 10 10 10 9 9 10 11 11 10 10
2 3 3 1 2 3 4 5 6 5 1 7 9 5 3 5 4 8 12 14 12 11 10 9 7 6 6 7 6 6 9 12 14 14 14 17 20 21 22 21 20 19 19 20 21 20 19 17 15 13 13 13 15 16 14 14 16 18 17 15 14 14 11 9 13 14 14 16 15 14 15 13 11 14 16 13 12 12 11 11 11 11 12 13 13 12 11
2 2 3 0 1 2 3 4 5 5 2 7 6 4 6 4 3 6 9 12 11 10 10 7 4 3 6 8 7 8 11 12 12 16 19 20 21 21 21 19 18 18 17 18 18 18 17 15 14 13 12 13 16 15 14 15 17 17 17 15 14 15 12 8 10 14 16 17 16 15 14 13 12 15 16 15 15 15 13 12 12 12 13 13 13 13 12
1 2 3 1 2 2 2 3 4 5 5 3 3 4 3 1 5 7 8 9 9 9 8 6 5 6 9 11 10 9 11 10 10 15 20 21 21 21 20 18 16 16 15 15 15 16 15 15 14 13 12 13 15 15 14 16 16 15 15 15 14 14 13 10 10 12 15 17 17 15 14 15 15 16 17 17 17 16 14 13 13 14 15 16 15 14 13
0 3 3 2 1 3 3 3 5 5 3 4 5 1 3 2 5 8 8 8 9 10 9 8 10 12 12 12 11 10 10 10 11 15 18 19 19 19 18 17 14 14 14 14 14 14 14 13 13 13 12 12 13 14 14 15 14 13 14 15 14 14 14 13 12 12 13 16 17 16 15 16 16 15 15 16 15 14 15 17 17 17 18 18 18 18 16
2 2 1 3 4 5 3 3 2 0 2 4 4 4 4 4 5 7 6 6 8 12 12 11 11 12 11 11 11 10 9 9 11 15 17 19 19 18 16 15 13 13 13 13 13 13 13 13 13 13 13 13 13 15 15 15 14 13 14 14 14 14 15 15 15 14 13 14 16 16 16 17 16 14 14 14 13 14 16 18 19 19 18 19 20 20 19
2 4 4 4 4 4 1 5 5 3 4 4 5 6 6 5 4 4 6 7 7 10 13 12 10 10 10 10 10 9 8 8 11 14 16 18 18 16 14 13 12 12 12 12 12 11 11 12 12 13 14 15 16 17 17 15 15 16 15 14 13 14 15 16 16 15 14 13 13 14 17 17 15 14 14 14 14 15 16 17 18 18 18 18 19 20 20
1 2 2 1 3 3 4 5 4 5 6 5 5 7 6 5 5 5 6 8 7 8 11 11 9 8 9 9 9 8 8 8 11 15 17 17 16 15 13 12 11 10 10 9 8 9 11 12 12 13 14 16 17 18 16 16 16 17 16 16 15 15 15 16 16 15 15 14 13 14 15 15 13 13 14 15 16 17 17 18 17 16 16 18 19 19 19
2 2 2 0 3 5 6 6 5 6 6 4 4 6 6 5 7 7 7 8 8 8 9 10 9 9 10 10 9 8 7 8 11 15 16 15 15 15 14 13 11 10 8 7 7 9 12 12 12 13 14 15 16 16 16 16 17 16 16 16 17 16 15 15 16 16 16 16 16 15 13 12 12 13 15 17 18 18 18 19 19 17 17 17 18 18 20
2 1 3 2 2 2 3 5 4 5 6 6 5 6 6 6 7 7 8 9 7 6 7 9 9 9 10 11 10 8 7 9 12 14 15 16 17 16 15 13 10 8 7 7 9 10 11 11 12 13 14 14 14 14 15 17 18 17 17 17 17 16 15 15 15 16 17 18 18 16 14 12 13 15 17 17 17 17 18 19 20 20 20 19 18 19 20
1 2 3 3 4 4 7 6 2 1 4 6 7 7 7 8 8 8 8 9 9 9 8 9 9 9 9 10 10 8 7 9 12 14 16 18 18 17 14 11 8 8 9 10 11 11 10 10 11 12 12 12 13 13 15 17 18 18 18 18 17 16 15 15 15 16 17 17 18 18 17 16 15 16 15 14 14 17 18 16 17 19 20 19 20 21 22
0 3 2 1 4 3 3 5 5 4 1 4 8 9 8 9 9 9 8 8 10 12 12 12 12 9 7 10 13 11 9 12 14 16 18 19 18 16 12 9 9 10 12 11 11 10 9 9 10 10 9 11 12 12 14 17 18 19 19 19 18 17 17 17 16 17 17 18 18 19 19 18 18 17 13 11 13 17 18 16 15 16 17 17 19 21 23
4 5 5 2 4 4 1 2 5 5 5 4 4 5 6 8 9 11 10 8 7 8 10 15 16 11 9 13 16 12 11 16 18 18 20 20 17 14 12 11 12 14 12 11 10 10 8 8 8 8 9 11 12 12 13 15 17 18 19 19 19 19 18 17 16 16 17 18 19 20 19 19 19 16 13 13 14 14 14 15 16 16 16 17 18 20 22
3 3 4 2 4 3 1 1 4 5 6 6 5 5 3 1 3 7 10 11 9 7 7 13 20 20 17 18 18 15 14 17 19 20 21 20 16 13 13 14 15 14 12 10 9 8 8 8 8 8 9 10 11 12 14 15 15 16 18 18 19 19 19 18 17 17 18 18 19 19 19 19 18 15 13 13 13 11 11 12 14 17 19 20 21 22 21
3 4 5 3 4 2 2 1 3 4 5 5 4 3 4 4 4 1 5 9 12 13 9 10 17 24 23 21 20 19 18 18 19 21 21 17 15 16 16 17 16 14 11 10 8 7 7 7 7 9 9 9 11 14 16 15 14 16 17 17 18 19 19 19 18 17 16 16 15 15 15 14 13 11 10 10 11 11 11 12 13 18 22 23 23 24 21
3 4 2 3 2 1 3 3 2 2 3 2 1 2 5 7 6 5 8 11 13 17 17 15 18 24 26 23 21 21 21 20 21 22 19 17 17 19 19 18 16 14 11 10 9 8 7 6 7 8 8 9 11 14 16 15 15 16 17 17 17 17 17 18 18 16 14 13 13 14 14 13 11 11 11 12 13 14 15 15 16 19 23 25 24 22 20
3 4 4 4 2 3 2 1 3 2 2 3 2 2 8 13 12 7 7 13 15 17 21 23 23 23 23 22 21 22 24 23 21 19 18 20 21 21 19 17 15 13 11 10 10 8 7 6 7 7 7 9 11 14 16 16 15 16 17 18 17 17 16 17 18 17 15 14 13 14 15 14 13 13 14 14 16 17 17 18 18 19 21 24 24 21 19
1 2 3 4 4 4 3 5 5 2 2 2 1 2 6 11 10 5 4 7 11 13 17 22 24 22 20 22 23 24 23 22 20 19 21 23 23 20 18 15 13 11 10 10 9 7 6 6 6 5 6 8 10 13 16 17 14 15 17 18 17 17 17 17 18 18 17 15 13 13 13 13 13 13 13 13 16 18 18 17 17 18 19 21 21 19 18
2 2 2 2 5 4 3 2 2 2 2 2 3 4 5 6 6 6 5 5 7 7 10 15 20 22 23 25 26 25 21 20 21 22 24 25 22 19 17 14 12 11 10 9 7 6 5 5 4 4 5 7 9 12 15 15 13 14 17 18 17 17 17 18 19 18 18 17 15 13 13 13 13 14 14 14 15 16 16 17 18 18 19 18 18 17 16
3 3 3 3 2 0 1 2 3 3 4 4 3 5 5 4 4 5 6 6 6 6 7 10 15 20 23 25 26 26 23 23 24 26 26 24 21 19 17 16 14 12 10 8 7 5 4 3 3 3 4 6 8 10 12 13 12 13 16 16 16 17 17 18 18 18 18 18 16 15 15 15 14 15 16 16 16 16 16 17 18 18 18 18 17 17 16
5 5 5 5 4 3 1 3 3 3 5 4 4 5 5 4 5 6 5 4 6 7 9 11 13 17 21 22 24 26 26 26 27 26 24 22 21 19 16 14 13 12 10 8 6 5 3 1 1 2 4 6 9 9 10 10 11 13 15 15 16 17 17 17 17 18 18 18 18 17 17 17 17 17 17 17 18 18 18 18 19 19 19 20 20 19 19
5 6 5 4 4 4 3 3 2 3 5 5 5 6 6 6 7 6 4 5 7 9 11 12 12 15 20 22 22 24 27 27 26 25 22 21 20 18 14 12 11 10 9 7 4 3 3 1 1 2 3 7 9 9 8 9 10 12 14 15 16 17 17 16 16 18 18 18 18 18 18 18 18 18 18 18 18 19 19 19 20 20 21 21 22 22 22
3 4 5 4 3 4 5 4 3 4 5 5 5 7 9 10 10 9 8 9 10 11 13 14 13 14 18 23 23 22 24 24 22 22 23 22 20 17 14 12 11 10 8 6 4 4 3 1 1 2 3 7 9 9 9 9 10 11 12 14 15 16 17 16 16 17 17 17 17 18 19 19 19 19 19 18 18 19 19 20 20 21 22 22 23 23 22
3 4 6 6 5 4 5 5 4 4 5 5 7 8 10 12 12 12 12 12 13 13 15 18 18 16 18 23 25 24 22 18 15 17 22 23 20 17 15 12 11 9 7 6 5 5 2 1 1 2 4 8 9 9 10 11 10 11 12 13 14 15 16 16 17 17 16 16 18 19 20 21 21 20 19 19 18 18 19 19 20 21 22 23 23 22 20
6 6 8 9 9 9 8 7 6 5 5 5 6 7 10 13 14 14 14 15 16 18 19 19 18 15 16 20 23 23 23 21 19 21 24 24 20 17 15 13 12 10 8 7 7 5 3 1 1 2 6 7 8 9 10 11 11 12 13 12 13 15 16 16 16 16 15 17 19 21 21 21 20 19 19 19 18 19 19 20 20 21 22 22 22 20 18
8 7 8 10 10 10 9 8 8 7 6 6 8 9 12 15 15 15 17 18 19 21 21 21 18 14 14 17 19 20 21 23 25 26 25 23 20 17 15 14 12 10 10 10 8 5 3 1 0 2 5 7 7 9 10 10 11 13 13 13 14 16 16 15 16 16 16 17 19 19 19 18 18 18 19 19 20 19 19 19 20 20 21 20 19 18 17
8 7 7 9 12 12 10 9 10 11 10 10 11 13 14 15 17 17 18 19 20 21 23 25 23 18 16 19 23 24 23 25 27 28 25 23 20 17 16 13 10 10 11 11 9 5 3 2 1 3 5 6 6 8 9 9 11 13 15 15 16 17 16 16 15 15 15 15 16 16 17 17 17 18 18 19 20 20 20 19 19 20 19 19 17 16 16
10 10 10 11 12 13 13 11 11 12 12 12 13 15 16 17 18 18 17 19 22 23 24 25 23 19 15 16 20 23 24 26 28 28 25 22 20 17 15 12 10 10 12 11 8 4 3 3 3 4 5 4 5 7 9 10 11 13 14 15 16 17 16 14 13 13 14 15 16 16 17 17 17 17 18 18 19 19 19 19 19 18 18 17 16 15 15
9 10 11 11 12 14 15 15 13 12 12 13 15 17 18 18 18 17 17 19 22 23 23 23 23 20 18 18 18 20 22 25 26 26 24 21 18 15 13 11 9 10 11 9 7 6 5 5 4 4 4 4 6 8 11 11 11 12 13 14 14 15 15 14 14 14 15 15 15 16 17 17 17 17 18 18 18 18 18 18 18 17 16 16 15 15 15
9 10 11 10 11 12 14 15 15 15 16 16 17 18 19 19 17 16 16 19 21 21 22 24 24 21 20 20 20 21 23 25 25 24 22 19 16 14 12 11 11 10 10 8 7 7 7 6 3 3 3 5 7 10 11 11 10 10 11 12 13 13 14 14 14 14 14 13 13 14 16 17 18 18 18 18 18 17 17 17 17 17 16 16 15 15 15
11 12 12 12 12 12 14 15 17 17 18 17 17 17 19 19 17 16 17 19 20 20 20 24 26 24 22 23 24 25 27 27 26 24 21 19 18 17 15 14 13 12 10 9 8 8 7 5 2 1 3 6 9 10 9 9 9 8 10 11 12 13 14 14 14 14 14 14 14 15 16 17 18 18 17 17 17 17 17 17 17 17 17 16 15 14 14
13 15 15 14 13 14 14 15 16 16 16 16 16 15 16 17 18 19 19 20 22 22 22 24 26 26 25 26 26 26 26 26 25 23 20 18 18 18 17 16 15 14 12 10 9 8 6 4 1 1 4 8 9 9 8 8 7 8 10 12 14 14 14 14 14 14 15 15 14 15 16 17 18 18 17 17 16 16 15 16 16 16 16 15 14 14 14
15 16 15 14 15 16 15 16 16 15 14 15 16 15 15 16 18 19 19 20 23 24 24 24 25 25 26 27 26 24 24 25 25 23 18 15 15 16 17 18 18 15 11 10 9 7 5 3 0 3 6 8 8 6 6 7 8 8 10 12 13 14 14 13 13 14 14 14 14 14 15 16 18 19 18 17 17 16 15 15 15 15 15 15 15 14 14
17 17 16 15 16 16 15 14 14 13 13 15 17 15 13 14 16 17 19 21 23 24 24 24 23 24 26 27 26 24 24 25 25 22 18 14 12 14 17 19 19 15 10 8 7 6 3 1 1 5 7 7 5 5 6 8 9 9 10 11 12 13 13 12 12 13 14 14 14 15 15 16 17 16 16 15 15 16 15 15 14 14 14 15 15 15 15
17 17 17 17 17 16 15 15 15 14 14 16 15 13 12 13 15 16 18 21 24 24 24 24 25 26 26 26 26 26 26 25 24 22 19 16 14 16 19 19 16 12 8 6 5 4 2 1 1 5 7 4 3 5 7 8 8 9 10 11 12 12 13 13 13 13 14 14 15 15 15 15 14 13 13 13 13 14 14 13 12 12 12 12 13 13 13
17 17 17 17 16 16 16 17 17 17 15 14 11 9 9 9 9 12 16 21 24 27 26 26 27 29 29 28 27 26 25 23 21 21 20 17 17 19 20 16 12 10 8 6 5 4 3 2 1 5 5 2 3 6 8 8 9 10 10 10 11 12 13 15 15 14 14 15 15 15 14 14 14 13 12 12 12 13 12 12 11 11 10 11 11 11 11
15 16 16 16 16 15 14 14 14 14 12 9 6 7 9 8 6 8 12 15 19 23 27 29 30 30 30 29 27 25 23 20 17 17 19 18 17 17 18 15 12 10 9 6 5 6 6 3 1 3 3 3 5 8 8 9 10 10 10 9 10 11 13 15 15 15 15 16 15 14 14 14 14 13 12 12 12 12 12 11 10 10 9 9 9 9 10
14 15 16 16 14 11 10 10 10 10 9 7 6 8 11 11 9 10 13 16 18 20 24 28 29 29 28 27 25 24 23 21 17 15 18 20 19 17 16 14 11 10 9 8 7 7 6 3 1 2 1 4 7 9 8 9 10 10 9 8 9 10 12 14 14 14 15 16 15 14 13 13 13 13 12 11 11 11 10 10 9 8 8 9 9 9 8
15 15 15 13 11 10 9 9 9 10 9 8 9 11 14 15 15 16 18 22 23 22 22 23 25 26 26 24 22 21 21 19 16 14 15 18 18 16 14 12 11 10 10 9 8 6 4 2 1 1 1 4 8 9 8 9 9 9 8 8 8 10 12 12 12 12 14 15 14 13 13 12 12 12 12 11 10 10 10 9 9 9 8 8 8 7 6
16 15 13 9 8 7 7 6 6 7 8 11 14 16 17 18 17 16 17 21 23 23 22 22 23 25 24 22 21 19 17 17 16 15 14 15 16 14 13 12 12 11 9 8 8 6 5 4 3 2 3 4 5 7 7 8 8 8 9 9 9 10 11 11 11 11 12 13 13 13 12 11 11 11 11 10 10 10 9 8 8 8 8 8 7 7 6
15 15 14 13 13 14 13 10 7 6 11 13 15 17 20 20 17 16 19 22 22 21 21 21 22 23 23 22 21 19 17 16 15 14 13 13 13 12 12 13 13 10 8 7 8 6 6 5 5 4 4 4 4 5 6 7 8 8 9 9 9 9 9 10 10 10 10 10 11 11 11 10 10 11 11 9 9 9 9 8 7 7 7 7 6 6 6
15 15 15 15 15 16 17 18 19 20 20 16 13 15 22 23 19 17 19 21 20 18 17 18 19 21 21 21 20 18 17 16 14 12 11 11 10 10 11 13 12 9 7 8 7 6 6 6 6 6 6 5 6 6 6 7 8 9 9 9 9 9 9 10 10 10 10 9 9 10 10 9 10 11 11 9 8 8 8 8 7 6 6 5 5 5 5
Wind_Direction
357 76 51 42 60 65 60 61 51 50 89 99 87 113 150 143 121 142 168 155 141 150 155 147 151 147 139 143 140 135 140 133 119 108 96 88 83 78 74 70 70 71 70 67 62 58 60 64 67 70 73 74 78 81 86 97 110 127 152 168 174 182 192 195 198 210 216 215 215 214 213 213 210 214 239 248 238 233 233 232 231 231 232 234 236 236 237
11 21 33 41 60 56 40 40 42 58 80 90 94 106 109 97 112 132 137 133 133 141 146 150 153 147 140 139 134 130 129 121 112 106 100 93 83 74 69 64 61 60 63 70 68 61 55 57 61 65 72 79 83 78 77 85 90 96 117 137 135 122 126 139 147 162 189 204 210 211 210 209 206 207 228 251 244 232 231 232 231 230 230 232 234 236 236
0 5 18 26 56 65 47 28 25 52 75 79 89 101 97 95 108 121 122 121 120 114 126 133 130 122 121 124 127 126 121 113 109 103 100 96 88 77 69 61 55 51 55 66 71 68 61 59 62 69 76 81 81 76 71 76 82 84 89 94 93 92 94 96 104 117 129 146 171 198 211 215 211 209 222 241 246 239 236 236 234 232 232 231 233 235 236
335 341 3 11 55 64 42 20 9 28 82 100 110 122 124 122 124 124 123 126 136 134 124 116 112 114 114 117 119 116 114 115 112 107 103 100 92 84 73 61 56 52 53 62 70 72 69 65 67 74 85 91 87 79 73 71 75 77 75 76 79 83 88 90 97 105 107 111 121 138 175 200 206 207 217 230 238 240 244 246 244 243 240 235 233 234 236
308 323 353 13 55 52 21 342 328 334 81 99 109 127 133 135 137 139 144 149 150 142 128 117 116 118 117 120 123 120 120 117 110 109 108 103 97 91 80 69 59 53 56 63 67 71 71 68 68 71 80 89 90 83 76 70 69 69 67 67 69 71 76 82 86 90 92 92 96 104 118 149 183 201 211 221 231 239 246 250 250 251 253 247 239 236 236
295 313 351 35 52 52 270 270 273 206 144 122 122 134 136 133 126 117 121 128 134 136 127 122 124 124 123 130 131 129 128 120 113 113 110 106 103 95 83 75 61 55 63 67 65 68 73 72 70 70 74 80 85 80 74 71 70 68 64 62 62 61 61 64 64 64 68 71 71 71 78 90 112 168 206 218 232 243 247 249 250 250 252 253 247 241 240
229 321 27 56 59 220 245 291 326 135 135 120 108 106 113 116 110 108 116 125 131 130 124 123 123 119 119 120 116 118 122 120 118 116 114 113 110 101 93 82 63 62 72 73 67 71 78 76 72 71 70 73 79 77 70 66 65 63 60 56 53 53 52 51 51 51 50 53 56 50 44 50 60 56 41 26 294 263 255 254 257 257 254 252 250 248 248
67 13 57 103 211 252 294 335 4 60 102 108 100 73 40 99 117 120 124 129 128 124 122 122 121 118 111 98 93 113 121 119 120 120 121 119 115 115 110 85 70 73 80 79 75 77 80 77 73 72 69 67 70 72 69 64 59 55 52 47 44 44 45 43 44 44 39 37 42 43 33 28 32 36 34 29 24 6 317 284 276 272 265 258 257 257 256
102 98 71 71 236 318 337 334 327 350 122 130 123 104 46 88 118 121 123 128 130 126 122 123 122 114 101 81 69 98 109 108 111 115 118 119 117 114 100 81 75 78 78 78 80 79 76 72 70 70 70 68 66 66 66 61 55 50 46 41 37 36 35 35 36 37 34 30 30 35 35 30 27 28 28 25 22 18 3 332 306 296 284 273 270 269 264
70 94 64 25 58 57 277 274 285 298 140 134 118 111 109 195 143 134 133 136 137 133 133 137 136 117 99 92 97 106 103 102 103 107 110 108 104 99 90 83 79 77 74 73 76 75 70 66 65 65 68 67 63 60 58 52 47 43 38 34 30 28 27 28 29 30 30 26 23 25 28 29 29 25 20 18 16 15 11 353 333 325 311 295 288 284 277
36 88 98 95 140 197 238 254 288 321 123 119 97 99 133 243 178 145 141 145 148 150 152 149 142 126 114 129 159 140 114 108 108 109 106 99 94 89 86 85 81 77 75 72 68 65 61 58 58 60 64 63 56 51 49 47 42 35 28 23 20 16 16 18 21 24 25 22 20 20 17 18 21 14 8 10 15 16 14 2 348 341 334 322 312 303 293
20 92 101 110 184 221 238 248 288 304 118 93 80 104 205 249 219 168 154 153 155 155 149 141 139 143 143 153 171 155 120 109 107 110 108 102 97 91 87 86 83 78 75 69 63 60 57 55 55 55 58 59 52 44 41 38 32 24 19 17 13 9 5 2 8 11 12 13 16 16 13 13 10 3 2 8 14 13 8 2 356 353 349 341 329 319 312
19 89 101 4 252 248 259 265 288 305 38 70 86 175 221 236 204 175 153 148 151 146 140 139 143 145 133 135 143 130 112 104 101 103 102 99 97 93 89 88 85 80 75 70 66 61 58 58 57 53 54 54 48 42 36 29 20 13 11 11 7 6 6 0 359 0 0 3 7 10 14 15 6 2 7 13 14 14 14 10 8 6 2 358 348 337 330
7 103 103 33 291 271 267 281 322 17 63 97 189 216 245 176 147 142 130 134 139 132 129 129 122 114 112 117 122 116 109 108 104 101 100 97 94 92 89 86 83 80 76 72 67 62 58 59 56 51 53 51 44 40 34 23 13 6 7 7 1 360 4 3 0 356 354 357 1 3 8 10 4 3 11 18 22 29 33 28 22 15 7 4 1 355 348
59 64 72 90 219 263 292 335 354 23 88 187 208 128 31 57 113 110 109 123 130 124 118 117 120 120 117 117 118 113 110 112 108 104 103 101 97 93 89 83 79 77 73 65 59 55 49 49 50 47 48 47 42 38 30 18 9 3 2 1 354 352 355 357 357 355 350 351 354 356 1 2 359 358 5 12 20 28 24 17 13 7 1 358 356 352 349
92 80 140 188 209 252 288 85 109 31 114 162 163 107 73 65 81 91 98 107 119 124 124 121 120 120 119 121 121 117 115 115 109 106 105 104 100 95 89 83 75 70 66 58 52 47 39 36 37 39 42 43 39 32 23 15 10 5 1 358 353 351 352 350 349 350 349 347 346 348 354 357 357 1 7 11 13 13 10 8 7 3 359 354 351 348 345
162 172 204 214 218 250 4 94 128 129 92 98 120 112 96 79 74 88 101 99 104 116 120 120 119 120 123 125 123 121 122 118 111 108 108 107 103 96 89 86 80 72 66 56 46 39 34 34 36 37 38 37 31 23 14 9 7 3 1 1 358 355 352 348 344 344 343 344 342 341 345 351 357 7 16 16 12 8 5 3 1 359 356 352 348 344 342
337 115 120 144 150 126 81 79 96 106 102 104 107 103 102 104 104 106 111 115 117 118 120 121 124 127 129 126 123 123 121 115 112 112 112 112 110 105 101 99 94 86 75 60 45 40 38 37 34 28 25 22 18 11 5 2 1 357 356 358 357 355 351 345 343 342 341 341 340 335 337 344 353 0 4 4 2 1 1 359 355 351 349 348 345 341 338
67 70 11 321 164 148 115 97 83 79 89 103 113 118 129 133 125 123 124 125 122 119 124 130 133 136 135 130 128 128 124 122 123 122 123 125 123 118 117 114 107 98 84 66 60 57 47 36 26 18 11 8 6 2 360 0 358 355 354 353 349 348 346 343 341 341 341 342 340 335 334 339 343 345 347 349 351 351 352 352 348 342 338 339 340 340 338
131 207 302 307 168 145 90 99 112 110 106 100 96 112 126 127 125 129 131 129 125 122 129 133 132 134 136 135 135 134 129 132 134 132 133 133 128 124 123 120 112 102 94 87 81 71 55 38 23 12 7 5 2 360 1 2 359 355 355 354 346 340 338 337 336 336 336 338 339 338 335 329 328 333 337 339 341 342 342 343 342 337 330 327 329 334 334
48 330 345 36 76 38 10 10 9 163 141 125 114 114 117 119 122 126 127 129 130 130 130 129 127 130 134 134 134 133 132 136 140 140 137 134 132 129 126 122 117 110 107 103 92 77 61 41 22 14 13 11 3 359 2 3 359 355 355 353 348 344 338 332 329 331 334 335 336 336 333 326 320 322 326 328 329 331 332 334 337 337 334 329 328 329 327
324 264 282 111 119 101 4 355 355 346 16 124 131 133 131 130 133 133 129 126 128 133 135 133 130 134 144 142 138 139 148 151 147 143 139 135 133 133 132 130 126 117 111 106 95 80 62 40 26 24 22 12 2 360 2 0 357 357 357 353 349 348 344 336 329 328 329 330 330 329 329 327 320 312 306 307 314 320 325 327 327 329 332 334 333 330 326
208 222 236 218 133 136 183 346 9 12 31 74 110 137 147 153 153 146 139 133 132 143 148 145 141 143 152 152 147 146 154 155 149 145 144 142 139 141 145 139 126 115 109 104 93 77 60 45 41 40 27 13 6 3 357 351 349 353 357 355 349 346 344 339 332 326 321 321 323 322 323 327 323 304 287 292 303 308 315 319 316 315 320 324 327 328 325
182 214 220 175 118 136 212 13 35 25 36 55 49 31 36 78 163 160 156 153 152 158 165 158 154 153 152 153 153 151 155 156 152 148 149 149 147 148 145 134 123 116 109 100 85 68 61 58 52 41 27 16 10 2 353 346 345 351 357 354 348 345 344 341 335 326 316 313 319 322 323 324 319 301 289 300 310 309 308 307 305 309 316 321 324 328 329
161 205 206 153 124 174 262 44 59 25 21 44 49 22 6 359 350 274 197 173 160 159 165 166 161 158 156 156 155 155 158 159 153 149 149 150 150 146 137 129 124 119 109 97 84 74 74 67 44 31 25 17 8 2 357 354 352 354 357 354 348 346 346 344 343 340 330 324 330 336 337 334 327 315 315 326 328 325 319 310 302 305 312 318 325 330 331
166 188 168 90 86 318 337 7 356 341 13 39 35 301 302 304 304 272 232 213 187 169 164 166 168 165 165 166 162 157 154 150 147 148 151 151 146 139 132 128 126 119 108 101 95 88 81 59 31 21 18 9 2 0 358 357 357 357 356 354 351 349 346 346 350 354 349 342 339 338 337 338 334 329 331 334 334 332 329 323 316 313 312 315 322 331 331
166 158 113 77 3 309 331 275 242 276 50 75 79 335 294 282 275 259 231 223 211 187 171 170 171 169 169 171 164 153 149 148 148 150 150 145 139 134 131 129 125 117 111 107 99 87 72 50 28 19 13 3 359 358 354 351 353 356 355 354 354 353 351 351 354 355 351 343 335 328 325 322 320 318 320 322 322 322 322 322 321 319 318 317 321 330 333
138 138 122 137 194 235 224 192 202 220 55 74 131 210 240 245 242 236 225 218 213 202 187 178 173 166 163 162 156 150 149 151 150 146 142 139 138 137 136 133 127 122 118 112 99 82 63 46 33 29 21 3 355 355 352 348 351 357 356 354 353 352 350 350 352 351 349 345 339 331 325 319 313 311 310 310 311 311 313 316 318 319 320 320 323 330 334
27 44 85 154 191 201 194 181 204 274 314 316 296 270 245 225 217 226 228 199 190 203 205 191 179 170 162 158 154 152 153 152 148 144 143 142 141 141 138 133 129 127 121 112 101 85 62 44 39 40 26 1 351 353 353 351 355 360 357 353 351 348 345 346 345 344 343 343 340 335 329 322 316 311 307 304 304 306 308 312 314 315 317 320 323 326 326
350 17 24 343 310 103 130 246 252 265 271 273 277 277 271 256 239 243 235 203 184 193 205 196 179 168 163 161 159 157 156 152 147 144 144 144 144 143 141 137 131 126 120 113 101 85 65 48 37 28 4 348 348 354 357 356 357 356 353 351 348 344 340 340 340 338 336 337 338 338 335 331 327 324 318 312 309 308 308 310 312 311 312 314 317 317 316
356 2 12 4 13 44 11 279 268 268 271 262 244 249 260 265 260 254 239 208 194 191 191 192 184 172 166 165 162 157 153 149 145 143 144 145 146 146 145 143 136 129 123 117 103 89 91 90 13 356 348 342 345 354 0 357 351 348 347 345 342 340 337 335 335 334 333 331 331 333 334 333 332 331 327 323 320 318 315 312 310 307 307 307 307 307 308
21 354 352 358 15 22 344 309 309 300 289 277 252 244 247 247 249 248 225 187 182 178 176 185 194 184 171 163 157 150 146 145 143 142 143 143 142 142 142 141 134 128 124 119 113 126 148 149 9 2 345 339 342 352 358 350 342 344 344 340 337 337 335 332 330 331 330 328 327 328 330 329 327 327 326 325 323 321 318 315 311 308 307 306 303 302 305
34 341 324 318 327 328 307 282 260 264 271 267 257 254 250 246 245 243 223 196 185 180 175 180 193 192 173 159 150 142 139 139 139 139 139 139 138 139 139 134 127 124 124 125 136 156 171 150 34 17 332 332 341 347 342 333 334 341 341 337 336 334 330 326 325 324 323 323 322 322 322 322 322 322 322 321 319 317 315 313 310 307 305 303 301 302 305
252 252 254 246 237 248 262 255 243 248 260 264 266 263 259 254 248 239 225 205 191 189 188 185 189 195 180 160 149 146 146 146 143 140 141 140 140 138 134 127 123 123 126 136 152 160 160 100 58 7 328 331 338 335 327 326 334 339 336 335 337 335 327 322 320 318 316 317 317 317 317 316 317 318 317 316 316 316 315 313 310 306 303 301 301 301 300
316 300 287 272 254 245 244 238 229 235 252 266 272 269 266 261 249 233 222 212 201 198 194 184 179 188 187 169 158 156 159 159 154 150 146 143 140 138 132 126 126 129 133 146 159 161 156 135 82 342 327 327 328 326 325 329 335 334 332 334 336 332 324 317 314 311 310 312 313 312 312 311 311 312 314 314 315 316 315 313 310 307 303 300 299 297 294
353 344 325 312 304 293 276 252 238 240 247 256 266 271 271 267 255 237 226 220 209 198 189 179 172 179 189 179 167 163 162 159 154 150 147 143 140 138 135 133 137 145 149 151 156 162 169 162 163 304 311 319 321 320 325 334 334 332 333 336 334 330 322 313 307 304 304 306 307 307 307 308 308 309 312 314 314 315 315 312 309 305 301 298 294 291 292
343 341 328 322 321 315 299 272 255 254 254 258 266 271 270 269 264 249 232 219 206 193 187 183 181 185 193 188 176 168 166 161 154 148 145 143 141 140 140 142 150 162 164 161 160 164 164 141 175 271 289 308 315 315 324 333 330 326 327 329 328 324 317 308 302 298 299 302 305 306 307 310 311 311 312 312 311 312 311 309 305 302 299 296 292 290 293
330 328 320 315 313 309 302 292 279 268 262 263 270 272 271 271 268 256 233 211 199 193 189 184 178 173 174 174 168 161 158 155 150 146 145 144 143 143 146 154 165 176 175 170 162 152 150 167 213 253 278 295 303 314 330 335 328 324 325 325 324 320 313 305 299 298 300 303 306 308 309 310 311 311 311 310 309 308 306 303 301 299 297 295 292 290 290
312 308 306 308 312 308 303 298 294 286 278 271 270 272 274 273 266 251 227 205 197 193 187 175 166 158 153 149 146 143 145 147 146 145 145 145 145 148 154 164 176 181 175 163 145 139 160 192 224 255 280 299 313 330 341 338 328 326 330 330 327 322 314 302 295 295 299 304 307 308 308 310 311 311 310 310 310 310 307 305 304 302 300 299 297 292 288
289 285 284 289 297 301 298 293 291 290 288 280 272 270 273 270 258 240 219 204 200 198 187 173 167 166 164 157 150 150 153 154 152 148 146 145 144 145 148 158 167 167 160 150 145 155 177 200 232 271 293 317 334 343 343 335 328 329 333 334 332 328 320 312 305 301 301 305 309 311 313 313 310 306 304 305 307 309 308 308 308 308 306 304 300 294 289
300 295 290 284 282 284 287 287 285 285 285 283 277 273 273 266 250 230 215 207 202 197 187 178 175 174 171 164 159 158 160 159 155 150 148 147 146 145 149 159 165 161 156 158 163 171 182 198 227 284 322 342 348 345 337 332 334 340 342 340 337 332 326 319 315 313 313 312 312 313 316 314 309 305 302 302 302 303 303 304 304 304 304 302 298 294 290
304 301 298 291 283 279 278 280 281 278 277 279 281 282 281 268 247 229 216 204 191 181 175 173 169 164 159 156 156 157 158 157 153 152 153 156 156 156 159 165 166 163 162 167 170 170 175 184 204 335 351 354 353 347 338 335 338 341 340 338 338 338 335 325 314 314 318 317 313 311 312 311 310 310 308 305 302 302 303 304 304 303 301 299 296 294 294
297 296 293 288 283 278 275 276 277 272 269 274 280 282 278 266 249 231 212 194 182 174 167 162 158 156 156 157 157 156 155 154 153 154 159 165 171 175 174 169 166 166 167 166 163 163 169 182 260 351 357 358 357 349 341 337 335 336 337 338 339 343 343 333 320 316 318 318 312 309 308 307 306 307 307 306 305 304 303 304 303 301 297 295 295 295 297
292 290 288 284 281 279 278 278 276 270 267 274 279 276 268 261 249 228 204 187 179 172 166 161 161 163 163 160 157 154 152 152 154 155 154 150 157 172 175 169 165 166 167 164 161 162 167 185 334 353 360 5 0 341 333 333 333 335 340 341 341 344 347 343 332 323 320 316 311 308 307 306 306 307 307 308 307 306 303 301 299 295 291 291 293 295 297
290 289 289 286 282 280 280 278 276 272 270 273 276 272 263 257 246 224 200 183 174 170 168 167 166 164 161 157 154 152 153 154 156 157 152 142 144 159 166 165 163 164 165 167 168 167 164 169 17 12 15 14 342 328 334 334 332 334 341 343 341 343 348 348 341 331 323 318 313 311 313 316 318 320 320 317 313 310 307 303 298 294 290 289 291 293 296
293 293 292 287 282 280 280 281 281 278 270 267 266 259 248 240 225 206 197 189 180 172 168 166 163 159 156 153 150 150 153 156 162 168 168 164 162 165 166 165 164 165 168 175 181 178 177 180 55 36 36 16 317 328 340 342 335 333 336 340 341 343 346 346 342 337 333 327 320 317 321 327 329 329 327 323 318 315 312 307 304 301 298 293 292 292 293
298 297 296 290 282 279 282 290 293 284 265 250 243 227 214 204 186 181 187 185 175 167 161 156 154 154 154 151 150 150 150 147 150 163 171 169 165 166 169 170 167 164 169 183 193 187 184 187 60 51 45 348 327 335 345 348 344 338 333 332 335 336 339 341 340 338 336 333 326 322 325 330 331 330 329 324 320 318 318 316 313 312 307 300 296 296 295
306 304 305 301 292 286 292 301 299 281 252 228 212 202 192 176 147 133 135 133 132 140 147 147 145 147 150 151 153 156 155 148 140 148 161 164 164 168 173 172 165 163 173 188 194 190 190 197 96 83 50 335 335 340 346 349 347 340 330 325 325 327 332 338 339 335 332 331 329 325 326 330 332 333 331 328 324 324 323 322 323 325 321 312 306 302 300
327 320 314 306 297 294 294 293 288 274 245 208 185 178 169 151 133 124 124 121 120 123 128 132 135 141 147 151 154 159 163 161 155 152 157 163 168 171 171 166 162 166 178 188 191 190 194 199 168 133 327 324 330 334 338 341 341 336 327 321 321 323 328 333 334 330 328 329 328 324 322 325 329 332 331 329 329 329 328 327 330 332 328 318 312 310 309
346 344 344 346 346 342 331 306 278 254 212 176 160 152 146 138 130 125 122 118 116 116 117 120 126 133 139 145 152 157 160 160 156 150 150 160 167 168 166 166 169 174 181 185 183 180 183 194 213 254 289 302 314 323 326 324 325 326 325 322 320 323 327 330 331 328 327 327 327 324 320 319 322 328 331 331 330 328 327 325 325 326 325 321 319 319 320
1 7 24 42 52 54 52 48 56 108 138 147 147 139 130 123 117 115 117 118 116 115 116 121 127 130 131 135 144 152 156 157 154 148 148 156 163 165 169 175 179 182 182 181 181 186 198 212 229 252 264 267 283 308 314 307 304 312 322 325 322 318 317 320 326 330 330 326 323 324 325 323 321 323 326 329 329 327 326 324 322 323 327 330 331 330 328
23 30 43 53 60 65 63 58 62 79 95 103 107 114 118 117 111 108 115 122 123 120 119 125 132 135 135 136 140 146 153 157 157 153 151 155 160 169 181 186 187 183 178 179 189 209 226 231 234 239 246 257 275 290 294 293 297 305 314 319 318 312 307 308 315 323 328 328 323 322 325 327 324 321 322 326 325 322 322 323 322 322 323 324 323 325 327